DM5RC Weather Reports


Display with metric or nautical units.
time (UTC)temp
F
wind
direction
speed
MPH
gust
MPH
rain 1hr
in
rain 24hr
in
rain mn
in
humidity
%
barometer
mb
20260905080338 64 262 8.0 22.0 0.00 1.34 0.00 75 1015.5
20260905075818 65 333 7.0 22.0 0.00 1.34 0.00 75 1015.4
20260905075318 65 317 7.0 22.0 0.00 1.34 0.00 76 1015.4
20260905074819 64 290 9.0 22.0 0.00 1.34 0.00 75 1015.4
20260905074320 65 279 8.0 21.0 0.00 1.34 0.00 76 1015.3
20260905073819 64 275 7.0 21.0 0.00 1.34 0.00 76 1015.2
20260905073320 64 266 5.0 18.0 0.00 1.34 0.00 78 1015.1
20260905072822 64 267 9.0 18.0 0.00 1.34 0.00 77 1015.1
20260905072344 64 277 10.0 16.0 0.00 1.34 0.00 77 1015.1
20260905071824 64 278 6.0 16.0 0.00 1.34 0.00 78 1015.1
20260905071345 63 280 8.0 20.0 0.00 1.34 0.00 78 1015.1
20260905070824 63 283 10.0 19.0 0.00 1.34 0.00 78 1015.2
20260905070324 63 305 8.0 17.0 0.00 1.34 0.00 79 1015.1
20260905065826 63 231 7.0 12.0 0.00 1.34 0.00 80 1015.0
20260905065329 63 275 7.0 18.0 0.00 1.34 0.00 80 1014.9
20260905064830 62 200 7.0 18.0 0.00 1.34 0.00 80 1014.9
20260905064313 62 276 6.0 16.0 0.00 1.34 0.00 81 1014.8
20260905063814 62 287 7.0 18.0 0.00 1.34 0.00 82 1014.8
20260905063315 62 250 8.0 18.0 0.00 1.34 0.00 81 1014.8
20260905062818 61 257 5.0 16.0 0.00 1.34 0.00 82 1014.8
20260905062323 61 278 7.0 15.0 0.00 1.34 0.00 83 1014.7
20260905061825 61 259 4.0 14.0 0.00 1.34 0.00 84 1014.7
20260905061325 60 281 5.0 14.0 0.00 1.34 0.00 84 1014.6
20260905060825 60 291 8.0 13.0 0.00 1.34 0.00 84 1014.7
20260905060326 60 278 8.0 13.0 0.00 1.34 0.00 85 1014.7
20260905055826 60 281 6.0 13.0 0.00 1.34 0.00 86 1014.7
20260905055327 59 267 4.0 13.0 0.00 1.34 0.00 86 1014.5
20260905054828 59 241 6.0 11.0 0.00 1.34 0.00 87 1014.6
20260905054328 59 257 6.0 11.0 0.00 1.34 0.00 87 1014.5
20260905053852 59 269 5.0 8.0 0.00 1.34 0.00 87 1014.5
20260905053334 59 255 2.0 10.0 0.00 1.34 0.00 88 1014.4
20260905052816 59 252 6.0 10.0 0.00 1.34 0.00 87 1014.4
20260905052319 59 281 3.0 9.0 0.00 1.34 0.00 88 1014.3
20260905051821 59 265 3.0 9.0 0.00 1.34 0.00 88 1014.2
20260905051324 59 269 4.0 10.0 0.00 1.34 0.00 88 1014.2
20260905050847 59 278 5.0 10.0 0.00 1.34 0.00 88 1014.1
20260905050330 59 275 4.0 10.0 0.00 1.34 0.00 88 1014.0
20260905045853 59 248 4.0 11.0 0.00 1.34 0.00 88 1014.0
20260905045332 58 285 7.0 11.0 0.00 1.34 0.00 88 1013.9
20260905044853 58 254 4.0 9.0 0.00 1.34 0.00 88 1013.8
20260905044312 58 218 3.0 10.0 0.00 1.34 0.00 89 1013.8
20260905043813 59 222 3.0 10.0 0.00 1.34 0.00 88 1013.7
20260905043315 59 281 3.0 9.0 0.00 1.34 0.00 88 1013.6
20260905042835 59 273 4.0 8.0 0.00 1.34 0.00 88 1013.5
20260905042315 59 277 4.0 12.0 0.00 1.34 0.00 88 1013.4
20260905041817 59 264 6.0 13.0 0.00 1.34 0.00 88 1013.4
20260905041320 59 249 5.0 13.0 0.00 1.34 0.00 88 1013.4
20260905040842 59 263 4.0 11.0 0.00 1.34 0.00 88 1013.3
20260905040324 59 276 5.0 12.0 0.00 1.34 0.00 88 1013.3
20260905035847 59 277 7.0 12.0 0.00 1.34 0.00 88 1013.3
20260905035326 59 283 4.0 10.0 0.00 1.34 0.00 87 1013.2
20260905034827 60 262 6.0 10.0 0.00 1.34 0.00 87 1013.2
20260905034326 60 285 5.0 8.0 0.00 1.34 0.00 87 1013.2
20260905033827 60 268 5.0 10.0 0.00 1.34 0.00 88 1013.1
20260905033328 60 259 6.0 13.0 0.00 1.34 0.00 87 1013.1
20260905032830 60 276 7.0 13.0 0.00 1.34 0.00 87 1013.1
20260905032352 60 266 5.0 12.0 0.00 1.34 0.00 87 1013.0
20260905031812 60 264 5.0 11.0 0.00 1.34 0.00 88 1012.9
20260905031314 60 281 5.0 12.0 0.00 1.34 0.00 87 1012.8
20260905030835 60 296 6.0 13.0 0.00 1.34 0.00 87 1012.8
20260905030315 60 276 6.0 13.0 0.00 1.34 0.00 88 1012.7
20260905025817 60 276 3.0 13.0 0.00 1.34 0.00 88 1012.6
20260905025320 60 282 6.0 13.0 0.00 1.34 0.00 88 1012.5
20260905024843 61 276 4.0 12.0 0.00 1.34 0.00 88 1012.5
20260905024325 61 255 6.0 11.0 0.00 1.34 0.00 88 1012.4
20260905023828 61 281 5.0 10.0 0.00 1.34 0.00 88 1012.4
20260905023330 61 267 5.0 12.0 0.00 1.34 0.00 88 1012.3
20260905022849 61 262 7.0 15.0 0.00 1.34 0.00 88 1012.3
20260905022352 61 265 7.0 15.0 0.00 1.34 0.00 88 1012.2
20260905021816 61 271 6.0 16.0 0.00 1.34 0.00 88 1012.2
20260905021320 61 262 6.0 13.0 0.00 1.34 0.00 88 1012.2
20260905020823 61 265 6.0 10.0 0.00 1.34 0.00 89 1012.1
20260905020326 61 230 5.0 10.0 0.00 1.34 0.00 89 1012.0
20260905015828 61 275 3.0 10.0 0.00 1.34 0.00 89 1011.9
20260905015332 61 285 5.0 15.0 0.00 1.34 0.00 89 1011.9
20260905014816 61 261 5.0 15.0 0.00 1.34 0.00 89 1012.0
20260905014316 61 278 4.0 9.0 0.00 1.34 0.00 90 1012.0
20260905013817 61 267 5.0 11.0 0.00 1.34 0.00 90 1012.0
20260905013317 61 253 5.0 11.0 0.00 1.34 0.00 91 1011.9
20260905012820 61 224 4.0 8.0 0.00 1.34 0.00 91 1011.8
20260905012320 61 252 4.0 8.0 0.00 1.34 0.00 91 1011.8
20260905011820 61 267 2.0 8.0 0.00 1.34 0.00 91 1011.7
20260905011323 61 259 4.0 9.0 0.00 1.34 0.00 90 1011.7
20260905010826 61 272 4.0 15.0 0.00 1.34 0.00 90 1011.7
20260905010327 61 264 8.0 15.0 0.00 1.34 0.00 91 1011.8
20260905005831 61 272 4.0 14.0 0.00 1.34 0.00 91 1011.7
20260905005335 61 270 5.0 14.0 0.00 1.34 0.00 91 1011.7
20260905004814 61 263 6.0 12.0 0.00 1.34 0.00 92 1011.7
20260905004314 61 233 5.0 12.0 0.00 1.34 0.00 92 1011.7
20260905003814 61 275 3.0 10.0 0.00 1.34 0.00 92 1011.7
20260905003314 61 278 5.0 11.0 0.00 1.34 0.00 92 1011.6
20260905002815 61 258 7.0 11.0 0.00 1.34 0.00 92 1011.7
20260905002316 61 276 5.0 11.0 0.00 1.34 0.00 92 1011.6
20260905001836 61 268 3.0 11.0 0.00 1.34 0.00 92 1011.6
20260905001315 62 277 4.0 11.0 0.00 1.34 0.00 91 1011.5
20260905000815 62 278 5.0 10.0 0.00 1.34 0.00 91 1011.6
20260905000318 62 260 6.0 13.0 0.00 1.34 0.00 91 1011.6
20260904235817 62 286 7.0 13.0 0.00 1.34 0.00 91 1011.6
20260904235318 62 278 6.0 17.0 0.00 1.34 0.00 91 1011.4
20260904234819 62 277 6.0 17.0 0.00 1.34 0.00 92 1011.4
20260904234321 62 249 9.0 14.0 0.00 1.34 0.00 92 1011.4
20260904233823 62 279 6.0 14.0 0.00 1.34 0.00 93 1011.2
20260904233326 62 280 5.0 13.0 0.00 1.34 0.00 93 1011.3
20260904232829 62 257 6.0 11.0 0.00 1.34 0.00 93 1011.2
20260904232332 62 276 4.0 12.0 0.00 1.34 0.00 93 1011.1
20260904231815 62 288 7.0 12.0 0.00 1.34 0.00 93 1011.0
20260904231316 62 261 7.0 11.0 0.00 1.34 0.00 93 1010.9
20260904230816 62 223 6.0 14.0 0.00 1.34 0.00 93 1011.0
20260904230336 62 238 7.0 14.0 0.00 1.34 0.00 93 1011.1
20260904225815 62 268 6.0 14.0 0.00 1.34 0.00 94 1011.0
20260904225315 62 257 5.0 12.0 0.00 1.34 0.00 94 1011.0
20260904224837 62 264 6.0 15.0 0.00 1.34 0.00 94 1011.0
20260904224317 62 271 9.0 16.0 0.00 1.34 0.00 94 1011.2
20260904223838 62 284 8.0 16.0 0.00 1.34 0.00 94 1011.1
20260904223320 62 274 7.0 13.0 0.00 1.34 0.00 95 1010.8
20260904222822 62 253 6.0 13.0 0.00 1.34 0.00 95 1010.8
20260904222325 62 264 6.0 13.0 0.00 1.34 0.00 95 1010.8
20260904221828 62 262 4.0 11.0 0.00 1.34 0.00 95 1010.7
20260904221331 62 272 4.0 12.0 0.00 1.34 0.00 95 1010.6
20260904220813 62 267 7.0 12.0 0.00 1.34 0.00 95 1010.4
20260904220336 62 272 4.0 11.0 0.00 1.34 0.00 95 1010.4
20260904215813 62 275 5.0 10.0 0.00 1.34 0.27 95 1010.3
20260904215336 62 286 4.0 10.0 0.00 1.34 0.27 95 1010.4
20260904214817 62 269 4.0 10.0 0.00 1.34 0.27 95 1010.3
20260904214317 62 276 4.0 9.0 0.04 1.34 0.27 95 1010.1
20260904213817 61 266 4.0 9.0 0.04 1.34 0.27 95 1009.9
20260904213317 61 258 4.0 8.0 0.04 1.34 0.27 95 1009.9
20260904212817 61 279 3.0 10.0 0.04 1.34 0.27 95 1009.9
20260904212316 61 274 6.0 10.0 0.04 1.34 0.27 95 1010.1
20260904211816 61 267 3.0 9.0 0.08 1.34 0.27 95 1009.9
20260904211336 61 260 5.0 12.0 0.16 1.34 0.27 95 1010.0
20260904210815 61 273 4.0 12.0 0.24 1.34 0.27 95 1009.9
20260904210316 61 248 5.0 9.0 0.31 1.34 0.27 95 1009.7
20260904205816 61 245 5.0 9.0 0.31 1.34 0.27 95 1009.6
20260904205318 61 275 5.0 9.0 0.35 1.34 0.27 95 1009.4
20260904204820 61 281 3.0 11.0 0.31 1.30 0.26 95 1009.1
20260904204323 61 267 3.0 14.0 0.31 1.30 0.26 95 1009.4
20260904203826 61 239 4.0 9.0 0.31 1.30 0.26 95 1009.5
20260904203327 61 274 5.0 12.0 0.35 1.30 0.26 95 1009.2
20260904202831 61 273 4.0 10.0 0.35 1.30 0.26 95 1009.2
20260904202353 61 237 5.0 10.0 0.39 1.30 0.26 95 1009.2
20260904201851 61 226 5.0 12.0 0.39 1.26 0.25 95 1009.3
20260904201352 61 271 4.0 12.0 0.31 1.18 0.24 95 1009.2
20260904200813 61 268 5.0 10.0 0.24 1.10 0.22 95 1009.1
20260904200317 61 259 5.0 10.0 0.16 1.02 0.20 95 1009.0
20260904195820 61 263 5.0 10.0 0.20 1.02 0.20 95 1008.7
20260904195341 61 221 4.0 10.0 0.16 0.98 0.20 94 1008.5
20260904194822 61 274 6.0 10.0 0.20 0.98 0.20 94 1008.8
20260904194324 61 279 3.0 12.0 0.24 0.98 0.20 94 1008.7
20260904193827 61 271 6.0 12.0 0.24 0.98 0.20 94 1008.8
20260904193328 61 204 6.0 13.0 0.28 0.94 0.19 94 1008.6
20260904192850 61 260 6.0 14.0 0.31 0.91 0.18 94 1008.9
20260904192352 60 233 8.0 14.0 0.31 0.91 0.18 94 1008.8
20260904191813 60 229 3.0 11.0 0.31 0.87 0.17 93 1008.2
20260904191315 61 278 2.0 12.0 0.31 0.87 0.17 93 1008.7
20260904190816 61 277 6.0 12.0 0.31 0.87 0.17 93 1008.9
20260904190316 61 278 5.0 10.0 0.31 0.87 0.17 92 1008.9
20260904185818 61 237 5.0 14.0 0.28 0.83 0.17 92 1008.9
20260904185319 61 255 8.0 14.0 0.24 0.79 0.16 91 1009.4
20260904184821 61 263 6.0 14.0 0.24 0.79 0.16 91 1009.2
20260904184320 62 269 8.0 16.0 0.20 0.75 0.15 90 1009.4
20260904183841 62 262 5.0 13.0 0.16 0.71 0.14 89 1009.4
20260904183322 63 274 7.0 15.0 0.12 0.67 0.13 87 1009.5
20260904182824 64 294 5.0 18.0 0.04 0.59 0.12 84 1009.4
20260904182346 65 288 9.0 18.0 0.04 0.59 0.12 81 1009.5
20260904181848 65 303 8.0 18.0 0.00 0.55 0.11 80 1009.4
20260904181330 65 330 7.0 16.0 0.00 0.55 0.11 81 1009.1
20260904180851 65 316 5.0 10.0 0.00 0.55 0.11 83 1008.7
20260904180314 65 338 3.0 7.0 0.00 0.55 0.11 85 1009.0
20260904175837 65 296 3.0 6.0 0.00 0.55 0.11 85 1008.8
20260904175321 65 331 2.0 7.0 0.00 0.55 0.11 85 1008.7
20260904174824 65 319 3.0 7.0 0.00 0.55 0.11 85 1008.4
20260904174329 65 248 4.0 8.0 0.00 0.55 0.11 85 1008.3
20260904173813 65 261 3.0 11.0 0.00 0.55 0.11 85 1007.9
20260904173317 65 278 5.0 11.0 0.00 0.55 0.11 86 1007.8
20260904172841 65 291 4.0 13.0 0.00 0.55 0.11 86 1007.6
20260904172324 65 262 4.0 13.0 0.00 0.55 0.11 88 1007.5
20260904171826 64 250 7.0 13.0 0.00 0.55 0.11 90 1007.7
20260904171331 64 313 6.0 15.0 0.00 0.55 0.11 93 1007.7
20260904170836 63 275 5.0 18.0 0.12 0.55 0.11 96 1007.5
20260904170317 63 274 6.0 18.0 0.55 0.55 0.11 97 1007.4
20260904165819 63 271 8.0 18.0 0.55 0.55 0.11 97 1007.5
20260904165323 63 293 5.0 14.0 0.55 0.55 0.11 97 1007.5
20260904164826 63 281 5.0 19.0 0.55 0.55 0.11 96 1007.1
20260904164329 63 292 8.0 23.0 0.55 0.55 0.11 96 1006.9
20260904163832 63 321 7.0 23.0 0.55 0.55 0.11 96 1007.0
20260904163313 63 307 5.0 13.0 0.55 0.55 0.11 96 1007.2
20260904162816 64 265 4.0 13.0 0.55 0.55 0.11 96 1007.0
20260904162319 64 325 5.0 24.0 0.55 0.55 0.11 95 1007.0
20260904161822 65 300 8.0 33.0 0.55 0.55 0.11 92 1006.9
20260904161324 67 297 12.0 34.0 0.55 0.55 0.11 90 1007.4
20260904160825 73 304 16.0 34.0 0.43 0.43 0.09 82 1007.0
20260904160347 80 274 11.0 26.0 0.00 0.00 0.00 66 1005.3
20260904155829 80 250 14.0 26.0 0.00 0.00 0.00 64 1004.8
20260904155330 80 274 12.0 22.0 0.00 0.00 0.00 64 1004.8
20260904154852 80 258 7.0 18.0 0.00 0.00 0.00 65 1004.7
20260904154313 80 280 9.0 18.0 0.00 0.00 0.00 65 1004.8
20260904153815 80 258 9.0 18.0 0.00 0.00 0.00 64 1004.8
20260904153336 80 249 8.0 19.0 0.00 0.00 0.00 65 1004.8
20260904152816 80 260 11.0 22.0 0.00 0.00 0.00 64 1004.8
20260904152337 80 246 12.0 23.0 0.00 0.00 0.00 64 1004.8
20260904151818 80 239 9.0 26.0 0.00 0.00 0.00 65 1004.9
20260904151319 80 277 12.0 26.0 0.00 0.00 0.00 65 1005.0
20260904150823 80 278 11.0 25.0 0.00 0.00 0.00 65 1005.0
20260904150347 80 279 15.0 31.0 0.00 0.00 0.00 65 1005.5
20260904145829 80 274 13.0 31.0 0.00 0.00 0.00 65 1004.9
20260904145330 80 267 9.0 25.0 0.00 0.00 0.00 65 1005.2
20260904144813 80 283 12.0 25.0 0.00 0.00 0.00 65 1005.4
20260904144316 80 181 7.0 29.0 0.00 0.00 0.00 66 1005.1
20260904143819 80 234 12.0 29.0 0.00 0.00 0.00 66 1005.3
20260904143319 79 256 12.0 23.0 0.00 0.00 0.00 66 1005.3
20260904142822 79 248 9.0 26.0 0.00 0.00 0.00 66 1005.4
20260904142326 79 279 12.0 26.0 0.00 0.00 0.00 66 1005.4
20260904141847 79 222 8.0 22.0 0.00 0.00 0.00 67 1005.4
20260904141326 79 244 10.0 22.0 0.00 0.00 0.00 67 1005.6
20260904140828 79 262 10.0 21.0 0.00 0.00 0.00 67 1005.7
20260904140332 79 217 10.0 21.0 0.00 0.00 0.00 67 1005.8
20260904135815 79 278 10.0 19.0 0.00 0.00 0.00 67 1005.8
20260904135320 79 264 9.0 21.0 0.00 0.00 0.00 67 1005.9
20260904134824 79 272 11.0 22.0 0.00 0.00 0.00 67 1005.8
20260904134327 79 280 7.0 22.0 0.00 0.00 0.00 67 1005.9
20260904133829 79 229 9.0 19.0 0.00 0.00 0.00 67 1006.0
20260904133313 79 278 9.0 19.0 0.00 0.00 0.00 67 1006.2
20260904132815 78 283 6.0 19.0 0.00 0.00 0.00 68 1006.1
20260904132317 78 259 9.0 19.0 0.00 0.00 0.00 68 1006.2
20260904131819 78 198 11.0 19.0 0.00 0.00 0.00 68 1006.3
20260904131319 78 190 7.0 20.0 0.00 0.00 0.00 69 1006.4
20260904130842 78 243 8.0 20.0 0.00 0.00 0.00 69 1006.4
20260904130321 78 256 12.0 20.0 0.00 0.00 0.00 69 1006.5
20260904125821 77 230 8.0 17.0 0.00 0.00 0.00 69 1006.6
20260904125321 77 238 9.0 16.0 0.00 0.00 0.00 69 1006.8
20260904124821 77 210 7.0 16.0 0.00 0.00 0.00 69 1006.9
20260904124324 77 232 8.0 15.0 0.00 0.00 0.00 68 1006.9
20260904123826 78 264 8.0 19.0 0.00 0.00 0.00 68 1007.0
20260904123329 78 232 10.0 19.0 0.00 0.00 0.00 68 1007.1
20260904122831 77 263 8.0 20.0 0.00 0.00 0.00 67 1007.2
20260904122313 77 238 9.0 20.0 0.00 0.00 0.00 67 1007.3
20260904121815 77 264 5.0 17.0 0.00 0.00 0.00 68 1007.4
20260904121317 77 271 11.0 18.0 0.00 0.00 0.00 68 1007.4
20260904120819 77 239 10.0 18.0 0.00 0.00 0.00 68 1007.5
20260904120322 77 236 6.0 18.0 0.00 0.00 0.00 68 1007.6
20260904115824 77 259 8.0 15.0 0.00 0.00 0.00 69 1007.8
20260904115327 76 265 8.0 22.0 0.00 0.00 0.00 69 1007.9
20260904114830 76 266 11.0 22.0 0.00 0.00 0.00 69 1008.0
20260904114313 77 257 10.0 21.0 0.00 0.00 0.00 69 1008.1
20260904113815 77 259 11.0 21.0 0.00 0.00 0.00 69 1008.2
20260904113315 77 261 10.0 22.0 0.00 0.00 0.00 69 1008.2
20260904112816 77 268 9.0 22.0 0.00 0.00 0.00 69 1008.2
20260904112317 76 259 10.0 18.0 0.00 0.00 0.00 70 1008.3
20260904111838 76 282 10.0 18.0 0.00 0.00 0.00 71 1008.4
20260904111318 76 286 9.0 15.0 0.00 0.00 0.00 71 1008.6
20260904110837 75 246 8.0 19.0 0.00 0.00 0.00 72 1008.7
20260904110318 75 279 12.0 22.0 0.00 0.00 0.00 72 1008.8
20260904105820 75 209 8.0 22.0 0.00 0.00 0.00 72 1008.9
20260904105323 75 266 5.0 21.0 0.00 0.00 0.00 72 1009.0
20260904104826 75 243 10.0 21.0 0.00 0.00 0.00 72 1009.0
20260904104328 75 333 11.0 21.0 0.00 0.00 0.00 72 1009.1
20260904103831 75 226 9.0 21.0 0.00 0.00 0.00 73 1009.1
20260904103332 74 245 11.0 19.0 0.00 0.00 0.00 73 1009.1
20260904102850 74 255 7.0 19.0 0.00 0.00 0.00 74 1009.0
20260904102329 74 250 6.0 16.0 0.00 0.00 0.00 75 1009.3
20260904101830 73 273 7.0 19.0 0.00 0.00 0.00 75 1009.2
20260904101350 73 351 9.0 19.0 0.00 0.00 0.00 76 1009.5
20260904100813 73 264 10.0 18.0 0.00 0.00 0.00 76 1009.6
20260904100317 72 260 8.0 16.0 0.00 0.00 0.00 77 1009.5
20260904095819 72 276 8.0 16.0 0.00 0.00 0.00 77 1009.5
20260904095321 72 242 5.0 18.0 0.00 0.00 0.00 77 1009.7
20260904094823 72 219 9.0 18.0 0.00 0.00 0.00 77 1009.7
20260904094324 72 79 5.0 21.0 0.00 0.00 0.00 78 1009.7
20260904093824 73 275 11.0 21.0 0.00 0.00 0.00 77 1009.8
20260904093324 73 269 8.0 15.0 0.00 0.00 0.00 78 1010.0
20260904092825 73 262 8.0 15.0 0.00 0.00 0.00 78 1010.2
20260904092323 72 282 6.0 13.0 0.00 0.00 0.00 79 1010.4
20260904091824 72 210 6.0 17.0 0.00 0.00 0.00 79 1010.5
20260904091326 72 225 6.0 17.0 0.00 0.00 0.00 79 1010.5
20260904090829 72 258 9.0 16.0 0.00 0.00 0.00 79 1010.6
20260904090351 72 249 9.0 16.0 0.00 0.00 0.00 78 1010.7
20260904085832 72 232 7.0 15.0 0.00 0.00 0.00 79 1010.7
20260904085312 71 280 8.0 24.0 0.00 0.00 0.00 79 1010.8
20260904084814 71 236 8.0 24.0 0.00 0.00 0.00 80 1010.8
20260904084315 71 226 10.0 18.0 0.00 0.00 0.00 80 1010.8
20260904083836 71 141 7.0 14.0 0.00 0.00 0.00 80 1010.9
20260904083341 71 283 8.0 18.0 0.00 0.00 0.00 80 1010.9
20260904082824 71 163 6.0 18.0 0.00 0.00 0.00 80 1011.0
20260904082323 71 215 5.0 12.0 0.00 0.00 0.00 81 1011.0
20260904081823 70 255 6.0 12.0 0.00 0.00 0.00 81 1011.1
20260904081324 70 172 6.0 14.0 0.00 0.00 0.00 81 1011.2
20260904080824 70 277 7.0 15.0 0.00 0.00 0.00 81 1011.3